Regional Weather Roundup
Issued by NWS

Home | Current Version | Previous Version | Graphics & Text | Print | Product List | Glossary On
Versions: 1 2 3 4 5 6 7 8 9 10 11 12 13 14 15 16 17 18 19 20 21 22 23 24 25 26 27 28 29 30 31 32 33 34 35 36 37 38 39 40 41 42 43 44 45 46 47 48 49 50
000
ASUS44 KMEG 270110
RWRTN
TENNESSEE HOURLY STATE WEATHER ROUNDUP
NATIONAL WEATHER SERVICE MEMPHIS TN
700 PM CST THU FEB 26 2015

TNZ002-004-019-021-049-052-054-088>092-270200-
WEST TENNESSEE

CITY           SKY/WX    TMP DP  RH WIND       PRES   REMARKS
MEMPHIS INTL   CLOUDY    31  21  66 N15G24    30.32R WCI  20
NWS MEMPHIS      N/A     30 N/A N/A MISG        N/A
JACKSON        CLOUDY    28  21  75 N17       30.32R WCI  16
DYERSBURG      CLOUDY    27   9  46 N12       30.38R WCI  16
UNION CITY     CLOUDY    25  19  80 N15       30.34R WCI  12
PARIS          CLOUDY    25  19  80 N10       30.30R WCI  15
LEXINGTON      CLOUDY    28  23  80 N13       30.26R WCI  18
SAVANNAH       CLOUDY    34  23  64 N12       30.25R WCI  25
$$

TNZ008-025-027-028-033-062-065-066-270200-
NORTH MIDDLE TENNESSEE

CITY           SKY/WX    TMP DP  RH WIND       PRES   REMARKS
NASHVILLE      CLOUDY    32  21  64 NW14G21   30.24R WCI  22
CLARKSVILLE    CLOUDY    27  22  81 NW14      30.29R WCI  16
SMYRNA         CLOUDY    33  24  70 N18       30.23R WCI  22
COOKEVILLE     MOCLDY    36  25  64 NW5       30.13R WCI  32
CROSSVILLE     CLOUDY    34  18  52 NW5       30.10R WCI  30
$$

TNZ061-075-076-078-094-096-097-270200-
SOUTH MIDDLE TENNESSEE

CITY           SKY/WX    TMP DP  RH WIND       PRES   REMARKS
FAYETTEVILLE   CLOUDY    37  21  52 N9          N/A  WCI  31
TULLAHOMA      CLOUDY    34  23  64 N12       30.15R WCI  25
WINCHESTER     CLOUDY    36  27  69 NW3       30.14R
MCMINNVILLE    CLOUDY    36  25  64 NW8       30.15R WCI  29
COLUMBIA         N/A     34  25  69 N7        30.20R WCI  28
SHELBYVILLE    CLOUDY    36  27  69 NW14      30.19R WCI  27
$$

TNZ017-018-042-046-047-270200-
NORTHEAST TENNESSEE

CITY           SKY/WX    TMP DP  RH WIND       PRES   REMARKS
TRI CITIES     CLOUDY    32  30  92 SW5       30.08R WCI  27
ELIZABETHTON   CLOUDY    30  28  93 W3        30.07R
$$

TNZ012-013-036-069-073-074-270200-
CENTRAL EAST TENNESSEE

CITY           SKY/WX    TMP DP  RH WIND       PRES   REMARKS
KNOXVILLE      MOCLDY    34  30  85 S3        30.11R
OAK RIDGE      MOCLDY    34  30  85 CALM      30.13R
GATLINBURG     CLOUDY    32  28  86 CALM      30.10R
MORRISTOWN     CLEAR     34  30  86 CALM      30.09R
$$

TNZ083-085-099-270200-
SOUTHEAST TENNESSEE

CITY           SKY/WX    TMP DP  RH WIND       PRES   REMARKS
CHATTANOOGA    PTCLDY    35  27  72 CALM      30.15R
$$

SKY/WX REPORTED AS FAIR MEANS FEW OR NO CLOUDS BELOW
12 THOUSAND FEET.



USA.gov is the U.S. government's official web portal to all federal, state and local government web resources and services.